Temp
19 18 18 17 17 17 17 17 17 17 17 17 17 16 16 16 16 16 16 16 16 16 16 16 16 16 15 15 16 16 16 15 15 15 16 16 16 15 15 14 14 13 13 13 13 13 13 13 13 12 11 11 11 11 11 11 11 10 10 10 9 9 9 8 8 8 8 7 7
19 18 18 17 17 16 17 17 17 17 16 16 16 16 16 16 16 16 16 16 16 16 16 16 16 16 16 16 16 16 16 15 15 15 15 15 15 15 14 14 13 13 13 13 13 13 13 12 12 12 11 11 11 11 11 10 10 10 9 9 9 8 8 8 8 7 7 7 7
19 18 18 17 17 16 16 17 17 16 16 16 16 16 16 16 16 16 16 16 16 16 16 16 16 16 16 16 16 15 15 15 15 15 15 14 14 14 14 13 13 13 13 13 13 13 12 12 12 12 11 11 11 11 10 10 10 9 9 8 8 8 7 7 7 7 6 6 6
19 18 18 17 17 16 17 17 17 16 16 16 16 16 16 16 16 16 16 16 16 16 16 16 16 16 16 15 15 15 15 15 15 14 14 14 14 13 13 13 13 13 13 13 12 12 12 12 12 11 11 11 11 10 10 10 9 8 8 8 8 7 7 7 7 6 6 6 5
18 18 18 17 17 17 17 17 17 16 16 16 16 16 16 15 15 16 16 16 16 16 16 16 16 15 15 15 15 15 15 15 14 14 14 14 13 13 13 12 13 13 13 12 12 12 12 12 12 11 11 10 10 10 9 9 9 8 8 8 8 7 7 7 6 6 6 6 5
18 18 18 17 17 17 17 17 17 16 16 16 16 16 15 15 15 15 16 15 15 15 16 16 15 15 15 15 15 15 15 14 14 14 14 13 13 13 13 13 13 13 13 12 12 12 12 12 11 11 10 10 9 9 9 8 8 8 8 7 7 7 7 6 6 6 6 5 5
18 18 17 17 17 17 17 17 17 17 16 16 16 16 16 15 15 15 15 15 15 15 15 15 15 15 15 15 15 14 14 14 14 13 13 13 13 13 13 13 13 13 12 12 12 12 11 11 11 10 10 9 9 8 8 8 8 7 7 7 7 7 6 6 6 6 5 5 4
18 18 17 17 17 17 17 17 17 17 16 16 16 16 16 15 15 15 15 15 15 15 15 15 15 15 15 15 14 14 14 14 13 13 13 13 12 12 13 13 13 12 12 12 12 11 11 11 10 10 9 9 9 8 8 7 7 7 7 7 7 7 6 6 6 5 5 4 4
18 17 17 17 16 16 17 17 17 16 16 16 16 16 16 15 15 15 15 15 15 15 15 15 15 15 15 15 15 14 14 14 13 13 12 12 12 12 12 13 13 12 12 12 12 11 11 10 10 10 10 9 9 8 8 7 7 7 7 7 7 6 6 5 5 4 4 4 3
17 17 17 16 16 16 16 16 16 16 16 16 16 16 16 15 15 15 15 15 15 15 15 15 15 14 14 14 14 14 14 14 13 12 12 12 12 12 12 12 12 12 11 11 11 11 11 10 10 10 10 9 9 9 8 7 7 7 7 7 7 6 5 5 4 4 4 3 3
17 17 16 16 16 16 16 16 16 16 15 15 15 15 15 15 15 15 15 15 15 14 14 15 15 14 14 14 14 14 14 14 13 12 12 12 12 12 12 12 12 11 11 11 11 11 11 10 10 10 10 9 9 8 8 7 7 7 7 7 6 5 5 4 4 3 3 3 3
17 16 16 16 16 16 16 15 15 15 15 15 15 15 15 15 15 15 15 15 14 14 14 15 15 14 14 14 14 14 14 13 13 12 12 12 12 12 12 11 11 11 11 11 11 11 11 10 10 10 10 9 8 8 8 7 7 7 7 6 6 5 4 4 3 3 3 3 3
17 16 16 16 16 15 15 15 15 15 15 15 15 15 15 15 15 14 14 14 14 14 14 14 14 14 14 14 14 14 13 13 12 12 12 12 12 11 11 11 11 11 11 11 11 10 10 10 10 10 10 9 8 8 8 7 7 6 6 6 5 5 4 4 3 3 3 3 2
16 16 16 15 15 15 15 15 15 15 15 15 15 15 15 14 14 14 14 14 14 14 14 14 14 14 13 14 14 14 13 13 12 12 12 12 11 11 10 10 11 11 10 10 10 10 10 10 10 10 9 9 9 8 8 7 6 6 6 5 5 4 4 4 3 3 3 2 2
16 16 15 15 15 15 15 15 15 15 15 15 15 15 14 14 14 13 13 13 14 14 14 14 13 13 13 13 14 14 13 12 12 12 12 11 11 10 10 10 10 10 10 10 10 10 10 10 9 9 9 9 9 8 7 6 6 6 6 5 5 4 4 3 3 3 2 2 2
16 15 15 15 15 15 15 15 15 15 15 15 15 14 14 14 13 13 13 13 13 13 13 13 13 12 12 12 13 13 12 12 12 11 11 11 11 10 10 10 10 10 10 10 10 10 9 9 9 9 9 9 8 8 7 6 6 5 5 5 5 4 4 3 3 2 2 2 2
16 15 15 15 15 15 15 15 15 15 15 15 14 14 13 13 13 13 13 13 13 13 13 13 13 12 12 12 12 12 11 11 11 11 11 11 10 10 10 10 10 10 10 10 10 10 9 9 9 9 9 8 8 7 6 6 5 5 5 5 4 4 4 3 3 2 2 2 2
16 15 15 15 15 15 15 16 15 15 15 14 14 14 13 13 13 13 13 13 13 13 12 12 12 12 12 11 11 11 11 11 11 11 11 10 10 10 10 10 10 10 11 10 10 10 9 9 9 8 8 8 7 6 6 5 5 5 5 4 4 4 3 3 3 2 2 2 2
16 15 15 15 15 15 15 15 15 15 14 14 14 13 13 13 13 13 13 12 12 12 12 12 12 11 11 11 11 11 11 11 11 11 10 10 10 10 10 10 10 10 11 10 10 10 9 9 9 8 8 7 7 6 6 5 5 5 4 4 4 3 3 2 2 2 2 2 2
16 15 15 15 15 15 15 15 15 14 14 14 13 13 13 13 13 13 12 12 12 12 12 12 12 11 11 11 11 11 11 11 11 10 10 10 10 10 10 10 10 10 10 10 10 9 9 9 8 8 7 7 6 6 5 5 5 4 4 3 3 3 2 2 2 2 2 2 2
15 15 15 15 15 15 15 15 14 14 14 14 13 13 13 12 12 12 12 12 12 12 12 12 12 11 11 11 11 11 11 11 11 11 10 10 10 10 10 11 11 10 10 10 10 9 9 8 8 8 7 7 6 6 5 5 4 4 3 3 3 2 2 2 2 2 1 1 1
15 15 15 15 15 15 15 14 14 14 14 13 13 13 12 12 12 12 12 12 12 11 11 11 12 11 11 11 11 11 11 11 11 11 11 11 10 11 11 11 11 10 10 10 9 9 8 8 8 7 7 7 6 6 5 5 4 3 3 3 2 2 2 2 2 2 1 1 1
15 15 15 15 15 15 15 14 14 14 14 13 13 12 12 12 12 12 12 11 11 11 11 11 11 11 11 11 11 11 11 11 11 11 10 10 11 11 11 10 10 10 10 10 9 9 8 8 8 7 7 7 6 6 5 5 4 3 3 3 3 2 2 2 2 2 1 1 1
15 15 15 15 15 15 14 14 14 14 13 13 12 12 12 12 12 11 11 11 11 11 11 11 10 10 11 11 11 11 11 11 11 10 10 10 11 11 10 10 10 10 10 9 9 9 9 8 8 7 7 6 6 5 5 4 4 4 3 3 2 2 2 2 1 1 1 1 1
15 15 14 14 14 14 14 14 14 13 13 12 12 12 12 11 11 11 11 11 10 10 10 10 10 10 10 10 10 11 11 11 11 11 10 10 10 10 10 10 9 9 9 9 9 9 9 8 8 7 7 6 5 5 4 4 3 3 3 2 2 2 1 1 1 0 0 0 1
15 14 14 14 14 14 14 13 13 13 12 12 12 12 11 11 11 11 11 10 10 10 10 10 10 10 10 10 10 10 10 11 11 11 11 11 11 10 10 9 9 9 9 9 9 8 8 8 8 7 7 6 5 4 3 3 3 3 2 2 1 1 1 0 0 0 0 0 0
14 14 14 14 14 14 13 13 13 12 12 12 12 11 11 11 11 11 10 10 10 10 10 10 10 9 9 9 9 9 10 10 10 11 11 11 11 10 10 9 9 9 9 9 8 8 8 7 7 7 7 6 5 4 3 3 2 2 2 1 1 1 1 1 1 0 0 0 0
14 14 14 13 13 13 13 13 12 12 12 12 11 11 11 11 10 10 10 10 9 9 9 9 9 9 9 9 9 9 10 10 10 10 10 10 11 10 10 9 9 9 9 9 8 7 7 7 7 7 6 6 5 4 3 3 2 2 1 1 1 1 1 1 1 1 0 0 0
13 13 13 13 13 13 13 12 12 12 12 11 11 11 11 10 10 10 9 9 9 9 9 8 8 8 8 8 8 9 9 10 10 10 10 10 10 10 10 9 9 9 9 8 7 7 7 7 6 6 6 6 5 4 3 3 2 2 1 1 1 1 1 1 1 1 0 0 0
13 13 13 13 13 13 12 12 12 11 11 11 11 10 10 10 10 9 9 9 9 9 8 8 8 8 8 8 8 9 9 9 9 10 10 9 9 9 9 9 9 9 8 7 7 7 6 6 6 6 5 5 5 4 3 2 2 2 1 1 1 1 1 1 0 0 0 0 0
13 13 13 13 13 12 12 12 11 11 11 11 10 10 10 10 9 9 9 9 9 8 8 8 8 8 8 8 8 8 9 9 9 9 9 9 9 9 9 9 9 8 7 7 7 6 6 6 6 5 5 5 4 4 3 2 2 2 1 1 1 1 1 0 0 0 0 0 0
13 13 13 13 12 12 12 11 11 11 11 10 10 10 10 9 9 9 9 9 8 8 8 8 8 8 8 8 8 8 9 9 9 9 9 9 9 9 9 8 8 7 7 6 6 6 6 6 5 5 4 4 4 3 3 2 2 1 1 1 1 1 1 0 0 0 0 0 0
13 13 13 12 12 12 11 11 11 11 10 10 10 10 9 9 9 9 9 8 8 8 8 8 8 8 8 8 8 8 8 8 8 8 8 9 9 9 8 7 7 6 6 6 6 5 5 5 5 4 4 4 4 3 2 2 1 1 1 1 1 1 0 0 0 0 -0 -0 -0
13 12 12 12 12 11 11 11 10 10 10 10 9 9 9 9 9 8 8 8 8 8 8 8 8 8 8 8 8 8 8 8 8 8 8 8 8 8 7 6 6 6 5 5 5 5 5 5 4 4 4 3 3 3 2 2 1 1 1 1 0 0 0 0 0 -0 -0 -0 -0
12 12 12 12 11 11 11 10 10 10 10 9 9 9 9 9 8 8 8 8 7 7 7 7 7 7 7 7 8 8 8 8 8 8 8 8 8 7 7 6 5 5 5 5 5 4 4 4 4 3 3 3 3 2 2 2 1 1 1 1 0 0 0 0 0 -0 -0 -0 -0
12 12 12 11 11 11 10 10 10 9 9 9 9 8 8 8 8 8 8 7 7 7 7 6 6 6 6 6 7 7 8 8 8 7 7 7 7 6 6 5 5 5 4 4 4 4 4 3 3 3 3 3 2 2 2 1 1 1 1 1 0 0 -0 -0 -0 -0 -0 -0 -1
12 12 11 11 11 10 10 10 9 9 9 9 8 8 8 8 8 7 7 7 7 7 6 6 6 6 6 6 6 7 7 8 8 7 7 7 6 6 5 5 4 4 4 4 4 3 3 3 3 3 3 3 2 2 1 1 1 0 0 0 -0 -0 -0 -0 -0 -0 -0 -0 -0
12 11 11 11 10 10 10 10 9 9 9 9 8 8 8 8 7 7 7 7 7 6 6 6 6 6 6 6 7 7 7 7 7 7 7 6 6 6 5 5 4 4 3 3 3 3 3 3 3 3 3 3 2 1 1 0 0 -0 -0 -0 -1 -1 -1 -0 -1 -1 -1 -1 -0
11 11 11 11 10 10 10 9 9 9 9 8 8 8 8 7 7 7 7 7 7 7 6 6 6 6 6 6 6 6 6 6 6 6 6 6 6 5 5 4 4 3 3 3 3 3 2 2 3 3 3 2 2 1 1 0 -0 -0 -1 -1 -1 -1 -1 -1 -1 -1 -1 -1 -1
11 11 11 10 10 10 9 9 9 9 9 8 8 8 7 7 7 7 7 6 7 6 6 6 6 6 6 6 6 6 6 5 5 5 6 6 5 5 5 4 4 3 3 3 3 2 2 3 3 3 3 2 2 1 1 0 -0 -0 -1 -1 -1 -1 -1 -1 -1 -1 -1 -1 -1
11 11 11 10 10 10 9 9 9 9 8 8 8 8 7 7 7 7 6 6 6 6 6 5 5 5 6 6 6 6 5 5 4 4 5 5 5 5 4 4 4 3 3 3 2 2 2 3 3 3 3 2 2 1 1 0 -0 -0 -1 -1 -1 -1 -1 -1 -1 -1 -1 -1 -1
Height
777 779 780 781 782 783 784 785 787 788 789 790 791 792 793 794 795 796 797 797 798 799 800 802 802 804 805 806 807 808 809 810 810 811 812 812 813 814 815 816 816 817 818 818 819 820 820 821 821 822 822 823 824 825 825 826 826 826 826 826 826 826 826 826 827 827 827 827 827
775 777 778 779 780 782 783 784 785 787 787 789 790 791 792 793 794 795 796 797 797 798 799 801 802 802 803 805 806 807 808 809 810 810 811 812 812 813 814 815 815 816 817 817 818 819 819 820 821 821 822 823 824 824 825 825 826 826 826 826 826 826 826 827 827 827 827 827 827
773 775 776 777 779 780 781 782 784 785 786 787 789 790 791 792 793 794 795 796 797 798 799 800 801 802 803 804 805 806 807 808 809 810 810 811 812 812 813 814 814 815 816 817 817 818 818 819 820 821 822 822 823 824 825 825 825 826 826 826 826 826 827 827 827 827 827 827 827
772 773 774 776 777 778 779 781 782 783 785 787 788 789 790 791 792 793 794 795 797 797 798 799 800 801 802 803 804 805 806 807 808 809 809 810 810 811 812 812 813 814 815 816 817 817 818 819 820 821 822 823 824 824 825 825 825 826 826 826 826 827 827 827 827 827 827 827 827
770 771 772 774 775 776 778 779 781 782 784 786 787 788 789 790 792 792 793 795 796 797 798 799 800 801 802 803 804 805 806 807 807 808 809 809 810 810 811 812 812 813 814 815 816 817 817 818 820 821 822 823 824 824 824 825 825 826 826 826 826 827 827 827 827 827 827 827 827
768 769 771 772 773 775 777 778 780 781 783 784 786 787 788 789 791 792 793 794 795 796 797 798 799 800 801 802 803 804 805 806 807 807 808 808 809 810 810 811 812 812 813 814 815 816 817 818 820 821 822 822 823 824 824 825 825 825 826 826 826 826 827 827 827 827 827 827 827
766 768 769 771 772 774 776 777 779 780 782 783 785 786 787 788 790 791 792 794 794 795 796 797 798 800 801 802 802 803 804 806 807 807 807 808 809 809 810 810 811 812 812 813 815 816 817 819 819 820 821 822 822 823 824 824 825 825 825 826 826 826 826 826 826 826 827 827 827
765 767 768 769 771 772 774 776 777 779 781 782 783 785 786 787 789 790 792 793 794 794 795 796 797 798 800 801 802 803 804 805 806 807 807 808 808 809 809 810 811 811 812 813 814 816 817 818 819 820 821 822 822 823 824 824 824 825 825 825 826 826 826 826 826 826 826 827 827
763 765 767 768 770 771 773 774 776 777 779 780 782 783 785 786 787 789 791 792 793 793 794 795 796 797 798 799 801 802 803 804 805 806 807 807 808 808 809 809 810 811 812 813 814 816 817 818 819 820 821 821 822 822 823 824 824 825 825 825 826 826 826 826 826 826 826 827 827
761 763 765 767 768 770 772 773 774 776 777 779 781 782 784 785 787 788 789 791 792 792 793 794 795 796 797 798 799 801 802 803 804 806 807 807 808 808 809 809 810 810 811 812 814 815 817 817 818 819 820 821 822 822 823 823 824 824 825 825 825 826 826 826 826 826 827 827 827
759 761 763 765 767 769 770 772 773 775 776 778 780 782 783 784 786 787 788 789 791 792 792 793 794 795 796 797 798 799 801 802 803 805 806 807 807 808 808 809 809 810 811 812 813 815 816 817 818 819 820 821 822 822 823 823 824 824 825 825 825 825 826 826 826 826 827 827 827
758 760 761 763 765 767 769 770 772 773 775 777 778 780 782 783 785 786 787 789 790 791 792 792 793 794 795 796 797 798 799 801 802 804 805 806 807 808 808 809 809 810 811 812 813 814 815 816 817 818 819 820 821 822 822 823 824 824 825 825 825 825 825 826 826 826 827 827 827
757 758 760 762 764 766 767 769 771 772 774 776 777 779 781 782 784 785 787 788 789 790 791 792 793 794 795 796 797 797 798 800 802 803 804 806 807 808 808 809 810 810 811 812 813 814 815 816 817 817 818 819 820 821 822 823 823 824 824 825 825 825 825 826 826 826 827 827 827
756 757 759 761 762 764 766 768 770 772 773 775 776 777 779 781 783 784 786 787 788 789 790 791 792 794 795 795 796 797 798 799 801 802 803 805 806 807 808 809 810 810 811 812 813 814 814 815 816 817 818 819 820 821 822 823 823 824 824 825 825 825 825 826 826 826 827 827 827
754 756 757 759 761 763 765 767 769 771 772 773 775 776 778 779 782 783 785 786 787 788 789 790 792 793 794 795 796 797 798 799 800 802 803 804 806 807 808 809 810 810 811 812 812 813 814 815 816 817 818 819 820 821 822 822 823 824 824 825 825 825 825 826 826 826 827 827 828
753 755 757 758 760 762 764 766 768 769 771 772 773 775 776 778 780 782 784 785 786 787 788 789 791 792 794 795 796 797 798 799 800 801 802 804 805 807 808 809 809 810 810 811 812 813 814 815 816 817 818 819 820 821 822 822 823 824 824 825 825 825 825 826 826 827 827 827 828
752 753 755 757 759 761 763 765 766 768 769 771 772 773 774 776 778 780 782 784 785 787 787 789 790 792 793 794 795 797 797 799 800 801 802 803 805 806 807 808 809 809 809 810 811 812 813 815 816 817 818 819 820 821 821 822 823 823 824 824 825 825 825 826 826 827 827 827 828
751 752 754 755 757 759 762 763 765 767 768 769 770 772 773 775 777 779 781 783 784 786 787 788 789 791 792 793 795 796 797 798 799 801 802 803 804 806 807 807 808 808 809 809 810 812 813 814 815 817 818 819 819 820 821 822 822 823 824 824 824 825 825 826 827 827 827 827 828
750 751 752 754 756 758 760 762 764 765 767 768 769 771 772 774 776 778 780 782 784 785 786 787 789 790 792 793 794 796 797 798 799 800 802 803 804 805 806 807 807 808 808 809 810 811 812 813 815 816 817 818 819 820 821 822 822 823 823 824 824 825 825 826 827 827 827 827 827
749 750 751 752 755 757 759 761 762 764 766 767 769 771 772 773 775 777 779 781 783 785 785 787 788 789 791 792 794 795 796 797 798 800 801 802 803 805 806 806 807 808 808 809 810 811 812 813 814 816 817 817 818 819 820 821 822 823 823 824 824 825 825 826 826 827 827 827 827
749 750 751 752 754 756 758 760 762 763 765 767 769 770 772 773 774 776 778 780 782 784 785 786 787 788 790 792 793 794 795 796 797 799 800 801 803 804 805 806 807 807 808 809 810 811 812 813 814 815 816 817 818 819 820 821 822 822 823 824 824 824 825 825 826 826 827 827 827
748 750 751 752 753 755 757 758 760 762 764 766 768 770 771 772 774 776 777 779 781 783 784 785 787 788 789 791 792 793 794 796 797 798 799 801 802 803 804 806 807 807 808 808 809 810 811 812 813 814 815 816 817 818 819 820 821 822 822 823 824 824 825 825 826 826 827 827 827
748 750 751 752 753 755 756 758 760 762 764 766 767 769 770 772 773 775 777 778 780 782 783 785 786 787 789 790 791 792 793 795 796 797 799 800 802 803 804 805 806 807 807 808 809 809 810 811 812 813 814 816 817 818 819 820 821 822 822 822 823 824 824 825 826 826 826 827 827
748 750 751 752 753 754 756 757 759 761 763 765 767 768 770 771 773 774 776 778 779 781 782 784 785 787 788 789 790 791 792 794 796 797 798 800 801 802 803 805 806 807 807 807 808 809 809 810 811 813 814 815 816 817 818 820 820 821 822 822 823 824 825 825 826 826 826 827 827
748 750 751 752 753 754 755 757 758 760 762 764 766 767 769 771 772 774 775 777 778 780 781 782 784 786 787 788 790 791 792 793 795 796 798 799 801 802 803 804 805 806 807 807 808 808 809 810 811 812 813 815 816 817 818 819 820 821 822 823 823 824 825 826 826 826 827 827 827
748 749 751 752 753 754 755 756 757 759 761 763 765 767 768 770 772 773 775 776 778 779 780 782 783 785 787 788 789 790 792 793 794 796 797 798 800 801 802 803 804 805 806 807 807 808 809 810 811 812 813 814 815 817 818 819 820 821 822 823 824 824 825 826 826 827 827 827 827
747 749 750 751 752 753 754 756 757 758 760 762 764 766 767 769 771 773 774 776 777 778 779 781 783 784 786 787 789 790 791 792 794 796 797 798 799 800 802 803 804 804 805 806 807 808 809 810 811 812 813 814 815 816 817 819 820 821 822 823 824 825 825 826 826 827 827 827 827
747 748 750 751 752 753 754 755 757 758 760 761 763 765 767 768 771 772 774 775 776 777 779 781 782 784 786 787 788 789 790 792 793 795 797 798 799 800 801 802 803 804 805 806 807 807 808 809 811 812 812 813 814 816 817 818 820 821 822 823 824 825 825 826 826 826 827 827 827
746 747 749 751 752 753 754 755 756 757 759 761 762 764 766 768 770 772 773 774 776 777 778 780 782 784 785 787 787 789 790 791 793 795 796 797 798 799 800 801 802 804 805 806 807 807 808 809 810 812 812 813 814 815 817 818 820 821 822 823 824 825 825 826 826 826 826 826 827
745 747 748 750 751 752 753 754 755 757 758 760 762 763 765 767 769 771 772 774 775 776 778 779 781 783 784 786 787 788 789 791 792 794 795 797 797 799 800 801 802 803 805 805 806 807 808 809 810 811 812 813 814 815 817 818 819 821 822 823 824 824 825 825 826 826 826 826 827
744 746 747 749 750 752 753 754 755 757 758 760 761 762 764 766 768 770 771 773 774 776 777 779 780 782 783 785 786 787 789 790 792 793 795 796 797 798 799 801 802 803 804 805 806 807 807 809 810 811 812 813 814 815 816 818 819 820 822 822 823 824 824 825 825 826 826 826 826
743 744 746 748 749 751 752 754 755 756 758 759 761 762 763 765 767 769 771 772 774 775 777 778 780 781 782 784 785 787 788 790 792 793 794 796 797 798 799 801 802 803 804 805 805 806 807 808 810 811 812 812 814 815 816 817 819 820 821 822 823 824 824 825 825 825 826 826 826
742 743 745 747 748 750 752 753 754 756 757 759 760 761 762 764 766 768 770 772 773 774 776 777 779 780 782 783 785 786 788 790 791 792 794 795 797 797 799 800 802 802 803 804 805 806 807 808 809 810 811 812 813 815 816 817 819 820 821 822 823 823 824 824 825 825 826 826 826
740 742 744 746 747 749 751 752 754 755 757 758 760 761 762 763 765 767 769 771 772 774 775 777 778 779 781 782 784 786 787 789 791 792 794 795 796 797 798 800 801 802 803 804 804 806 807 808 809 810 811 812 813 815 816 817 818 820 821 822 822 823 824 824 825 825 825 826 826
739 741 743 745 747 748 750 752 753 755 757 758 759 760 762 763 764 766 768 770 772 774 776 777 778 780 781 782 784 785 787 789 791 792 793 794 796 797 798 799 800 802 802 803 804 805 806 807 808 809 811 812 813 814 816 817 818 819 820 821 822 823 823 824 824 825 825 825 826
739 740 742 744 746 747 749 751 752 754 756 757 759 760 761 763 764 766 768 770 772 773 775 777 778 780 781 782 784 785 787 788 790 791 793 794 795 797 798 799 800 801 802 803 804 805 806 807 808 809 810 811 812 814 816 817 818 819 820 821 822 823 823 824 824 825 825 825 826
738 740 741 743 745 747 748 750 752 753 755 757 758 759 761 762 764 766 768 769 771 772 774 776 777 779 780 782 783 785 787 788 789 791 792 794 795 796 797 798 800 801 802 802 803 805 806 807 807 808 809 811 812 814 815 817 818 819 820 822 822 823 824 824 824 825 825 825 826
738 739 741 742 744 746 747 749 751 752 754 756 757 759 761 762 764 766 767 768 770 772 773 775 777 778 780 781 783 785 786 788 789 791 792 793 794 796 797 798 799 800 801 802 803 804 805 806 807 808 809 810 812 813 814 816 817 819 820 822 822 823 823 824 824 825 825 826 826
738 739 741 742 744 745 747 748 750 752 753 755 757 759 760 762 763 765 767 768 770 771 773 775 776 778 780 781 782 784 786 788 789 791 792 793 794 795 796 797 799 800 801 802 803 804 805 806 807 807 809 810 811 812 814 815 817 818 820 821 822 823 823 824 824 825 825 826 826
737 739 741 742 743 745 747 748 750 751 753 754 756 758 760 762 763 765 767 768 770 771 773 774 776 777 779 781 782 784 786 788 789 791 792 793 794 795 796 797 798 799 801 802 802 803 804 805 806 807 808 810 811 812 813 815 816 818 819 820 822 822 823 824 824 825 825 826 826
737 739 741 742 743 745 746 748 750 751 753 754 756 757 759 761 762 764 766 768 770 772 773 774 776 777 778 780 782 783 785 787 789 791 792 793 794 795 796 797 798 799 800 801 802 803 804 805 806 807 808 809 810 812 812 814 815 817 818 820 821 822 822 823 824 825 825 826 826
Wind_Speed
23 21 20 19 19 18 18 17 16 16 16 15 15 15 14 13 13 14 15 17 15 14 15 15 16 16 16 16 18 18 18 17 16 16 17 16 15 14 13 13 14 14 14 12 11 9 8 7 7 7 8 9 10 11 10 9 8 8 7 7 7 6 6 5 6 6 6 5 5
23 22 20 19 19 19 18 17 16 16 16 16 15 15 14 14 15 15 15 16 16 16 16 15 16 18 18 18 18 17 16 15 15 15 15 14 13 12 11 11 12 12 12 12 10 9 8 7 8 9 9 9 11 11 11 9 8 8 8 8 7 6 6 6 6 6 6 5 5
24 23 21 20 19 19 18 17 17 17 17 16 16 15 14 15 16 15 14 15 16 17 17 16 17 18 19 19 18 17 16 15 15 14 14 14 13 12 11 11 11 11 11 11 10 9 8 8 9 9 9 10 11 11 11 9 9 8 8 7 7 6 7 7 7 7 6 6 5
24 23 22 21 21 20 19 18 17 18 17 17 16 15 15 17 16 16 16 16 16 16 16 16 16 17 17 18 18 18 17 17 16 15 15 15 14 13 13 13 12 12 11 10 9 9 9 9 8 9 9 11 11 11 10 9 9 8 8 7 7 7 8 8 8 8 7 6 5
25 24 23 22 22 21 20 19 18 18 18 17 16 16 16 16 15 16 17 16 15 15 16 16 15 15 16 16 17 18 18 17 16 15 15 15 15 14 14 13 13 12 11 10 9 9 9 9 9 10 11 12 12 11 10 9 9 9 8 7 7 8 9 9 8 7 6 6 6
25 24 23 22 22 21 20 19 19 18 18 16 16 16 15 15 15 16 17 15 14 15 16 16 15 15 15 15 16 17 17 16 16 16 15 15 15 15 14 13 12 11 10 10 9 9 10 10 11 12 13 13 12 11 10 9 9 9 8 8 8 9 9 9 7 7 6 6 6
25 24 23 22 22 21 20 19 18 18 17 16 16 16 16 15 15 16 17 15 15 16 17 17 16 16 15 15 16 16 16 15 15 15 15 15 16 16 15 13 12 11 10 10 10 11 12 13 14 14 14 14 13 11 10 10 9 9 8 8 9 9 9 8 7 7 6 6 6
24 24 23 22 22 21 21 20 19 18 17 17 17 18 17 17 16 17 17 16 17 18 18 18 18 17 17 16 16 16 15 15 15 16 16 17 17 16 16 14 13 12 12 12 13 13 14 14 15 14 14 13 13 12 11 10 10 9 9 9 9 9 9 8 7 7 7 7 7
24 23 23 22 22 22 21 20 20 19 19 19 19 19 18 18 18 18 18 18 19 20 20 19 19 18 18 17 17 16 16 16 16 17 17 18 18 17 16 15 14 14 14 14 15 15 16 15 14 13 12 12 12 12 12 11 10 9 9 9 9 9 9 8 8 8 8 7 7
24 24 23 22 22 22 21 21 21 20 20 20 20 20 19 19 19 19 19 20 21 21 21 20 20 19 18 18 18 17 17 17 18 18 18 18 18 18 17 17 16 16 16 16 17 16 16 14 13 11 10 10 11 11 11 11 9 9 9 9 10 9 9 9 9 9 8 8 8
25 24 24 23 23 23 22 22 22 21 21 20 21 20 20 19 19 20 21 21 20 20 21 21 20 20 19 19 19 18 18 18 18 18 18 19 19 18 18 18 17 17 18 18 18 17 15 13 12 11 11 11 11 11 10 10 9 9 9 9 10 10 10 10 9 9 9 8 8
25 24 24 24 24 24 23 24 22 21 21 21 21 20 20 20 20 21 21 20 20 21 21 21 20 20 20 20 20 19 19 18 18 18 18 19 19 19 18 18 18 18 18 19 18 16 15 13 12 12 12 12 12 11 10 10 9 9 9 10 10 11 11 10 10 9 9 9 8
24 24 24 24 24 24 24 24 22 21 21 21 21 20 20 20 20 20 20 20 21 22 22 21 21 21 21 21 20 20 19 18 18 18 19 19 19 19 19 19 19 19 19 18 17 15 14 13 12 12 13 13 12 11 11 10 10 10 10 10 11 11 11 11 10 10 9 9 9
24 24 24 24 24 24 24 23 21 20 21 21 21 20 20 20 20 20 21 21 22 23 22 21 21 21 21 21 21 20 19 19 19 19 19 19 19 20 20 19 19 19 18 17 16 15 14 13 13 13 13 13 12 12 11 11 11 11 10 11 11 12 11 11 10 10 10 10 9
24 24 24 24 24 24 23 23 21 21 21 21 21 21 20 20 20 21 22 22 23 23 23 22 22 21 21 21 21 20 19 19 20 20 20 20 20 20 20 20 20 19 18 17 16 15 14 14 13 13 12 12 12 12 12 12 12 11 11 11 11 11 11 11 11 11 10 10 10
24 24 24 24 24 23 23 22 21 20 21 21 22 22 22 22 22 23 23 23 24 23 23 23 23 22 21 21 20 20 20 20 21 21 21 21 22 21 21 20 20 19 18 17 16 16 15 14 13 12 12 12 12 13 13 13 12 12 11 11 11 11 11 11 11 11 10 10 10
24 24 24 24 24 24 23 22 20 20 21 21 22 23 23 24 24 24 24 25 24 24 24 24 24 23 22 21 21 21 21 21 21 21 21 22 23 23 22 21 20 18 17 17 16 16 16 15 14 12 12 12 13 13 14 13 13 12 11 11 11 11 11 11 11 10 10 10 9
24 25 25 25 25 24 23 22 21 20 21 22 23 24 25 25 26 25 25 25 24 24 24 24 24 23 23 23 22 22 22 22 22 22 22 23 24 23 22 21 19 18 17 16 16 17 16 15 14 13 13 13 13 14 14 14 13 12 12 12 12 12 12 12 11 10 10 9 9
24 25 25 25 25 25 23 22 21 21 22 24 24 24 25 26 26 26 24 24 23 24 25 25 24 24 24 24 24 24 24 23 23 23 24 25 25 24 22 21 19 17 17 17 17 17 16 16 15 14 14 14 14 14 14 14 14 13 13 13 13 13 13 12 11 11 10 10 9
24 25 25 26 26 25 24 23 22 23 24 25 25 25 25 26 26 26 25 24 23 24 25 26 25 25 24 24 24 24 25 25 25 25 26 26 26 24 22 20 19 18 17 17 17 17 16 16 15 15 14 14 15 15 15 15 14 14 14 14 14 14 14 13 12 12 11 10 10
24 24 25 25 25 25 24 23 23 24 25 25 25 25 26 26 26 26 25 25 25 25 25 26 26 25 25 25 25 25 26 27 27 27 27 27 26 24 22 20 19 18 18 18 17 17 16 16 15 15 14 14 15 15 15 15 15 15 14 14 15 15 15 14 14 12 11 10 9
23 23 24 24 25 25 24 24 25 26 26 25 25 26 26 26 25 25 26 26 26 25 25 25 25 25 25 25 26 26 27 28 28 29 28 27 25 23 21 20 19 19 19 18 18 17 16 16 15 15 14 14 15 15 15 15 15 15 15 15 16 16 15 15 14 13 12 11 10
22 22 23 23 24 24 24 24 25 26 26 25 25 25 25 25 25 26 26 26 26 25 25 25 24 25 26 26 26 27 27 28 29 29 28 26 24 22 21 20 20 20 20 19 18 17 17 16 15 14 14 14 15 15 15 15 15 16 16 16 16 16 15 14 13 12 11 10 10
22 22 22 23 24 24 24 25 26 26 25 25 25 25 26 26 26 27 27 27 26 26 25 25 25 25 26 27 27 27 27 28 29 29 28 25 23 22 21 21 21 21 20 18 17 16 16 15 15 15 15 15 15 15 16 16 16 16 16 17 17 16 15 14 13 12 12 10 9
22 22 22 23 24 25 25 25 26 26 26 26 26 26 27 27 27 28 27 27 27 26 26 26 26 27 27 27 27 27 27 27 29 29 27 25 23 22 22 22 22 21 20 18 17 16 15 14 14 15 16 16 16 16 16 16 16 16 17 17 17 17 16 15 13 12 11 9 7
22 22 22 23 24 24 25 25 26 26 26 27 27 27 27 28 28 28 28 27 27 27 27 27 27 27 27 27 27 27 27 27 28 28 28 26 25 24 23 23 22 21 20 18 17 16 15 14 14 14 16 17 17 17 16 16 16 16 17 17 17 17 16 14 13 12 10 9 8
22 22 22 23 23 24 25 26 27 27 27 28 28 28 28 28 28 28 28 27 27 27 27 27 27 27 27 27 26 26 27 27 28 28 27 26 26 25 24 23 22 21 19 19 18 17 16 14 14 14 15 17 17 17 17 17 17 17 17 17 16 16 15 14 13 11 10 10 10
22 22 23 23 24 24 25 26 27 28 28 28 29 29 29 29 28 28 28 27 27 27 26 26 26 27 27 26 26 26 27 27 28 28 27 26 26 25 24 23 21 20 19 19 18 17 16 15 15 15 16 17 18 18 18 18 18 17 17 16 15 15 14 13 12 11 10 10 9
23 23 24 24 24 25 26 27 28 28 29 29 29 29 29 29 29 29 28 28 27 27 26 26 26 26 26 26 26 27 27 28 28 28 28 27 26 25 24 22 21 20 20 19 19 18 17 16 16 16 16 17 18 18 19 19 18 17 16 15 15 15 14 13 12 11 10 9 8
24 24 25 25 25 25 26 27 28 28 29 29 29 30 30 30 29 29 28 28 28 27 27 27 26 26 27 27 27 27 28 28 29 29 28 28 27 25 23 22 21 20 20 20 19 18 18 17 17 17 17 17 18 18 19 19 18 17 16 15 15 15 14 13 12 11 10 9 8
25 26 26 26 26 26 26 27 28 28 29 29 29 30 30 30 29 29 29 28 28 27 27 27 27 28 28 28 28 28 29 29 30 29 29 28 27 25 23 22 21 21 21 20 20 19 18 18 18 18 18 18 18 19 19 19 18 17 16 15 15 15 15 14 12 11 10 9 8
26 26 26 26 26 26 27 27 28 28 29 29 29 30 30 30 30 30 29 28 28 27 27 28 28 29 29 28 28 29 29 30 30 30 28 27 26 25 23 22 22 22 22 21 20 19 19 18 18 18 18 18 19 19 19 19 18 17 16 16 16 16 15 13 12 11 10 9 8
27 27 27 27 27 27 27 28 28 28 29 29 30 30 30 30 30 29 28 28 28 28 29 29 29 29 29 29 29 29 30 30 30 29 28 26 25 24 23 22 22 22 22 21 20 20 19 19 19 19 19 19 19 19 19 18 17 17 16 16 17 16 15 13 12 11 10 9 8
27 28 28 27 27 27 27 28 28 29 29 29 29 29 29 30 30 29 28 27 28 28 28 29 29 30 29 29 30 30 30 30 30 29 27 26 25 24 23 22 22 22 22 22 21 20 20 19 19 19 19 20 19 19 19 19 18 18 18 18 17 16 15 13 12 11 10 9 8
28 28 28 28 28 28 28 28 28 29 29 28 28 28 29 30 30 29 28 28 28 27 26 26 27 27 27 28 28 29 30 30 29 28 27 26 25 24 23 22 22 22 22 22 21 20 20 20 20 20 20 20 20 19 19 19 19 18 18 18 17 16 14 13 12 11 10 10 8
29 29 29 28 28 29 29 29 29 29 28 28 28 28 28 29 29 29 29 28 28 27 26 25 25 25 26 26 27 28 29 30 30 29 27 26 26 25 23 22 22 22 22 22 21 21 20 20 20 21 21 21 21 20 20 19 19 18 18 17 16 15 13 12 11 10 10 10 9
28 29 29 29 29 29 29 29 29 29 28 28 28 28 28 28 28 28 28 28 28 27 26 26 25 26 26 27 28 28 29 30 30 29 28 27 26 25 23 22 22 22 22 22 21 21 21 20 21 22 22 22 22 21 20 19 19 18 17 16 16 14 13 12 11 10 9 9 9
28 28 29 29 29 29 29 29 29 29 28 28 28 28 28 28 27 27 28 29 28 28 27 26 26 26 27 28 28 28 29 29 29 29 28 27 26 25 23 22 22 22 23 22 22 21 21 21 21 22 23 23 23 21 20 19 18 18 17 16 15 15 14 12 11 10 9 9 9
28 28 28 28 29 29 29 29 29 29 29 28 28 28 28 28 27 27 28 28 28 28 28 27 27 26 26 27 28 28 28 28 28 28 28 27 26 24 23 23 23 23 23 23 22 21 21 21 22 22 23 23 23 22 21 20 19 17 16 15 15 15 14 13 12 11 11 10 10
27 27 28 28 28 29 29 29 28 28 28 28 28 28 27 27 27 27 27 27 27 27 27 27 27 27 27 28 28 28 28 27 27 27 27 26 25 24 23 22 23 23 23 23 22 22 21 21 22 23 23 23 23 22 21 20 19 18 16 15 15 15 14 14 14 13 12 11 10
27 27 27 27 28 28 29 28 27 27 27 28 28 28 28 27 27 27 26 26 25 25 26 26 27 27 28 28 29 29 28 27 26 26 26 25 25 24 23 22 22 23 23 23 22 22 21 21 22 23 24 24 23 22 21 21 19 18 17 16 15 15 14 14 14 13 12 11 9
Wind_Direction
203 202 200 198 197 197 198 199 199 198 197 197 197 198 198 197 196 199 202 203 200 199 199 199 199 197 196 199 202 204 204 203 204 207 211 215 220 227 232 231 225 220 219 220 221 221 221 218 209 201 201 204 206 204 198 190 185 185 186 184 176 171 167 160 154 150 146 143 142
202 201 199 197 197 197 197 198 198 197 197 197 197 197 197 197 197 199 202 203 203 201 199 197 198 198 197 196 196 197 198 198 200 204 207 210 214 217 220 220 216 212 210 210 212 212 207 199 194 193 197 201 201 196 188 182 179 181 181 177 171 164 157 150 147 144 140 137 136
201 200 199 196 196 195 195 195 196 196 197 197 198 197 197 198 199 198 198 201 205 205 202 198 198 198 197 195 192 191 192 194 196 197 199 201 202 201 198 197 198 199 200 201 202 199 193 188 188 192 196 198 195 189 183 180 179 176 173 168 164 157 150 146 145 143 141 139 139
199 199 198 197 195 195 194 194 194 194 195 197 196 196 197 199 198 197 198 200 202 203 200 197 196 195 195 193 191 191 193 194 193 193 193 195 194 191 187 186 187 189 191 192 191 189 185 183 185 188 191 190 187 185 183 179 174 169 166 164 160 155 152 149 148 147 145 144 142
199 198 198 197 196 195 195 195 194 193 194 195 194 196 197 197 195 196 198 197 196 197 197 194 191 189 190 191 192 194 195 196 194 193 192 193 190 186 184 184 185 185 185 184 183 182 180 179 179 180 181 181 182 181 178 173 169 167 167 165 161 157 154 151 149 147 145 142 140
198 198 197 197 196 195 195 195 193 192 192 192 192 193 193 192 193 195 196 193 192 193 194 191 187 185 185 188 192 195 197 198 198 197 195 192 188 185 183 184 183 180 178 176 177 178 178 177 175 175 175 176 175 172 170 168 167 168 168 164 162 159 155 151 148 145 142 139 136
197 197 196 195 194 194 193 193 192 191 190 190 190 190 189 188 189 192 193 191 191 193 192 189 185 182 182 184 189 194 197 199 198 197 195 192 188 184 183 182 180 177 174 174 174 176 177 176 174 174 175 175 171 167 165 166 167 167 166 162 160 158 154 151 146 143 141 139 135
196 196 195 194 193 192 192 190 188 187 187 189 189 189 187 186 187 188 189 190 192 194 193 189 184 181 181 184 189 193 194 195 195 194 193 191 186 183 180 178 177 176 175 174 174 175 175 175 175 175 176 176 171 166 165 168 168 167 164 161 157 154 152 148 144 141 140 139 135
194 194 193 192 192 191 190 188 186 185 186 189 190 188 186 185 185 185 186 189 196 198 195 188 184 181 182 186 190 192 192 191 191 191 190 188 184 180 178 177 177 177 176 174 173 174 175 176 176 177 178 178 175 172 170 170 169 168 165 161 155 151 148 146 143 141 141 140 138
191 191 191 190 190 189 188 186 186 186 187 189 189 187 185 184 184 185 187 192 197 197 193 187 183 182 183 186 188 189 189 189 189 188 186 184 181 179 178 178 178 177 175 172 172 174 175 176 175 175 177 179 179 177 173 171 171 170 166 160 155 151 147 145 143 142 141 142 141
189 188 188 188 188 187 186 185 185 186 188 188 187 185 183 183 184 186 189 192 192 191 189 187 185 184 184 185 186 187 187 187 186 184 182 180 179 179 179 179 178 176 173 171 171 172 174 173 173 173 175 178 179 175 171 170 172 172 168 161 156 151 147 143 142 142 142 144 145
187 186 186 186 185 185 185 185 184 185 186 186 184 182 181 183 185 187 189 188 186 185 186 186 186 186 185 184 184 185 184 183 182 180 178 177 178 179 180 178 176 174 171 169 169 170 172 172 173 174 175 175 174 171 168 170 173 173 168 162 157 152 148 144 142 143 145 149 148
185 184 184 184 183 183 184 183 183 183 184 183 181 179 179 181 184 185 186 184 183 183 183 184 185 186 184 183 183 183 182 179 177 176 175 176 178 180 178 176 173 170 168 167 168 170 172 173 174 175 175 173 171 169 168 170 173 172 168 161 157 154 150 147 146 147 149 151 149
183 182 182 182 182 182 182 182 182 182 183 181 179 177 176 178 180 182 183 182 183 183 181 182 183 183 182 182 183 182 180 176 174 173 173 176 179 178 175 171 169 167 166 167 170 172 173 173 173 174 174 173 171 169 169 170 172 172 167 162 159 157 153 150 150 151 152 152 151
181 181 181 180 180 181 182 183 183 183 181 179 177 175 174 175 177 180 181 182 183 182 181 180 180 179 179 181 182 181 177 173 171 170 172 176 178 175 170 167 166 166 167 170 172 174 174 172 171 172 173 172 171 169 168 169 171 171 168 165 162 160 157 154 153 154 155 154 152
181 180 180 180 180 181 181 182 182 181 179 176 174 173 173 174 176 178 180 182 181 180 179 178 177 176 176 178 179 176 173 171 170 170 172 175 174 171 167 167 167 169 171 172 172 172 171 170 169 171 172 172 170 168 167 169 171 171 170 167 166 163 159 156 155 155 156 157 154
180 180 179 179 180 181 181 181 180 178 175 172 171 171 172 174 176 178 181 182 180 178 176 177 176 175 173 173 173 171 170 169 170 170 172 174 172 169 168 169 171 172 173 172 170 169 168 168 168 170 172 172 170 168 168 170 171 172 171 170 168 164 159 156 155 156 157 157 155
181 180 179 179 180 180 180 179 178 174 171 169 169 170 173 176 177 178 180 181 179 176 174 175 175 174 173 171 170 170 170 170 170 172 174 175 173 171 171 172 173 174 174 173 170 169 168 168 169 170 172 172 171 170 170 172 172 172 171 170 167 162 158 155 155 156 157 157 156
181 180 179 179 179 179 178 178 174 171 168 168 169 171 173 176 177 176 176 176 176 175 174 173 173 173 173 172 171 172 172 172 172 173 175 176 175 174 174 175 175 175 175 173 171 170 169 169 170 171 172 173 172 172 172 173 173 172 170 168 164 160 157 155 155 156 158 158 154
182 180 179 178 178 177 176 174 171 168 168 169 170 171 173 175 175 174 173 172 173 174 175 175 174 174 173 173 173 173 174 174 175 176 177 177 177 177 177 177 177 176 175 173 172 171 171 170 171 173 174 174 173 173 173 173 172 171 168 166 163 160 159 158 158 159 158 156 151
183 181 180 177 176 175 173 171 169 168 169 170 171 172 173 173 173 172 171 171 171 172 174 175 176 175 174 174 174 175 176 178 179 179 178 178 177 178 178 178 178 176 174 173 172 172 172 173 173 175 176 176 175 175 174 173 171 168 166 164 163 163 163 163 162 160 156 153 150
183 182 179 176 174 172 171 169 168 169 170 170 170 171 171 170 170 169 169 170 170 171 172 174 175 176 176 177 178 179 181 182 182 181 179 177 177 177 178 178 177 175 173 172 172 173 174 175 176 177 177 177 177 177 176 174 171 168 167 167 166 166 166 164 163 160 155 151 146
183 181 178 176 173 171 168 168 168 169 168 168 169 169 168 168 167 167 168 168 169 170 170 172 173 175 178 180 183 184 184 184 183 181 179 176 176 176 176 176 175 174 172 172 173 175 176 177 177 178 178 178 177 177 176 175 173 171 170 169 168 167 165 164 161 157 151 145 136
182 180 179 176 173 170 168 167 167 167 166 166 166 166 166 165 166 166 167 168 168 169 169 171 172 175 178 182 185 186 186 184 183 181 178 175 175 175 175 175 175 174 174 174 177 178 178 178 176 177 178 179 178 177 176 176 175 174 172 169 167 165 163 161 158 153 146 137 130
181 180 178 176 174 172 169 167 166 165 165 165 165 165 165 165 166 166 166 167 168 169 171 172 174 177 179 182 185 186 186 185 184 181 177 174 173 173 174 174 175 175 176 178 180 181 181 179 177 176 177 178 177 175 175 175 175 173 171 168 166 164 161 159 157 152 147 142 140
180 179 177 176 173 170 168 167 166 165 164 164 164 164 164 165 165 166 166 166 168 170 173 175 176 178 180 181 183 183 183 184 185 182 177 173 172 173 174 175 176 177 179 180 181 181 181 180 178 177 177 177 176 173 171 171 172 172 170 168 166 164 161 159 158 156 153 150 147
176 176 175 173 171 169 167 167 166 165 164 163 163 163 163 164 165 165 166 166 168 171 173 174 175 177 179 180 180 180 181 183 184 182 177 174 173 174 175 176 178 180 181 182 181 181 180 180 179 179 178 177 175 172 168 167 169 170 169 168 167 165 163 161 161 160 161 162 163
173 174 173 172 170 169 167 166 165 165 164 164 163 163 163 164 164 165 166 167 169 171 171 172 173 175 177 178 179 180 182 183 183 180 177 174 174 175 177 178 180 181 182 182 181 180 179 179 180 180 180 178 175 172 169 167 167 168 168 168 169 168 167 165 164 164 165 170 171
172 172 172 171 170 169 167 166 166 165 164 163 163 163 163 164 165 166 167 168 169 170 170 171 172 173 174 176 178 181 182 182 181 179 176 174 175 177 179 180 181 182 182 181 180 179 178 179 180 181 181 179 175 171 168 167 166 167 168 169 171 171 171 169 168 167 168 170 169
172 172 172 171 170 169 167 167 166 165 164 163 163 162 163 164 166 167 169 169 170 171 172 173 173 173 174 176 179 181 181 181 180 178 176 175 177 178 180 181 181 181 181 181 179 178 178 179 180 180 181 180 176 172 168 167 167 168 169 171 173 174 174 173 172 170 170 168 167
173 173 172 172 170 169 167 167 166 165 164 163 163 163 163 165 166 169 171 172 172 173 174 175 174 175 177 179 180 180 180 180 178 177 176 176 178 179 180 181 181 181 181 180 179 178 178 178 179 180 180 179 176 172 169 169 168 169 170 173 175 176 176 176 175 174 172 169 167
173 173 172 171 169 168 167 166 165 165 165 164 164 164 165 166 169 171 172 173 173 173 174 174 175 176 178 180 181 181 180 179 178 176 176 177 178 179 180 180 181 181 181 179 178 177 177 178 179 180 180 179 177 173 170 169 169 171 173 175 177 178 178 177 177 176 173 171 169
173 172 171 170 168 167 166 166 166 166 166 166 166 166 166 168 169 171 172 173 174 174 175 176 177 178 179 180 181 180 180 179 177 176 176 177 178 179 178 178 180 181 180 178 177 176 177 177 178 179 179 179 177 173 171 170 170 172 174 176 178 179 180 179 178 176 174 172 169
172 171 170 169 168 167 166 166 166 166 166 166 167 167 167 168 169 170 171 173 175 176 176 178 178 179 180 181 181 180 178 177 176 176 176 177 178 178 176 176 178 179 179 176 176 176 176 177 178 178 178 178 176 174 172 172 173 175 176 177 179 181 182 183 182 180 176 173 168
172 170 169 168 168 167 166 166 166 167 167 167 167 168 168 169 170 171 172 173 174 174 174 176 177 178 179 180 180 179 177 176 176 176 176 177 178 176 175 175 177 178 177 175 175 175 176 177 178 178 179 178 176 174 174 175 176 177 178 179 181 183 185 186 185 183 179 174 168
172 170 169 168 168 167 167 166 167 167 167 167 167 168 169 170 171 172 173 173 173 172 171 172 174 174 175 176 177 177 177 176 176 176 176 177 176 174 172 173 176 177 176 174 175 175 176 177 178 180 179 177 176 175 175 176 177 178 179 180 181 184 185 186 185 182 178 172 166
173 171 170 168 168 167 167 167 167 167 168 168 169 169 169 169 170 171 172 173 171 171 171 172 172 173 174 174 174 176 177 177 176 176 176 176 175 173 171 171 173 174 175 174 175 175 176 178 180 181 179 177 176 175 174 174 175 175 177 179 181 183 184 183 181 178 173 168 161
174 172 170 169 168 168 168 168 168 169 169 170 170 170 170 169 169 170 172 173 172 171 171 172 172 173 174 174 174 175 177 177 177 176 175 175 175 173 170 169 171 173 174 175 176 176 177 180 183 182 180 177 175 174 173 172 172 172 173 176 179 181 182 179 175 170 165 158 150
174 173 171 170 169 169 169 169 170 170 170 170 170 170 170 169 169 171 173 175 174 173 172 172 172 172 173 174 174 174 175 176 177 176 175 174 175 174 172 169 170 172 174 176 176 177 180 183 185 184 181 178 175 173 172 170 169 169 170 172 175 177 178 175 170 163 157 149 139
174 173 172 171 171 171 170 171 171 171 171 170 169 169 170 170 170 171 173 174 175 174 173 172 171 171 172 174 173 173 173 174 175 175 175 174 174 174 173 170 170 172 174 176 177 179 183 186 186 184 181 178 175 173 171 170 168 167 168 170 171 172 172 171 166 161 155 149 140
174 173 173 173 173 173 172 172 172 172 172 171 170 170 170 170 170 171 171 172 173 173 172 171 170 170 172 173 174 173 172 171 172 173 174 174 173 173 172 171 170 171 173 175 178 181 185 187 187 184 182 179 176 173 172 170 167 167 168 169 170 169 169 168 166 163 161 159 156